Tracking 29089 objects as of 12-Jul-2024
HD Live streaming from Space Station
objects crossing your sky now

COSMOS 1275 DEB

Track COSMOS 1275 DEB now!
10-day predictions


NORAD ID: 42191
Int'l Code: 1981-053TF
Perigee: 855.5 km
Apogee: 909.4 km
Inclination: 82.8 °
Period: 102.5 minutes
Semi major axis: 7253 km
RCS: Unknown
Launch date: June 4, 1981
Source: Commonwealth of Independent States (former USSR) (CIS)
Launch site: PLESETSK MISSILE AND SPACE COMPLEX (PKMTR)

Note: This is SATELLITE DEBRIS
Your satellite tracking list
Your tracking list is empty




NASA's NSSDC Master Catalog

Two Line Element Set (TLE):
1 42191U 81053TF  24192.65057177  .00002845  00000-0  17367-2 0  9995
2 42191  82.8265 329.2342 0037195 241.0222 118.7220 14.05351519543718
Source of the keplerian elements: AFSPC